www.pogodaiklimat.ru

Погода и климат >> Архив погоды >> Россия >> Ханты-Мансийский АО >> Саранпауль


АРХИВ ПОГОДЫ в Саранпауле

Время (UTC), дата Ветер
(напр.,м/с)
 
Видим.   Явления Облачность Т
(С)
Тd
(С)
f
(%)
Тe
(С)
Тes
(С)
Комфортность P
(гПа)
Po
(гПа)
Тmin
(С)
Tmax
(С)
R
(мм)
R24
(мм)
S
(см)
09 19.06 З 3 50 км 8/3 600 м
[Cu hum Ci sp]
+13.6 -0.8 37 +13 +19 1003.4 999.9
12 19.06 З 4 50 км 8/3 600 м
[Cu med, cong Ac lent Ci fib]
+14.0 -1.0 36 +13 +15 1004.5 1001.1
15 19.06 СЗ 4 50 км 6/3 600 м
[Cu hum Ac lent Ci sp]
+11.5 -2.0 39 +10 +10 1006.5 1003.1 +15.1
18 19.06 З 1 20 км 3/0
[Ac trans Ci fib]
+5.9 -1.0 61 +5 +5 1007.4 1003.8
21 19.06 ЮЗ 2 20 км 3/0
[Ci fib]
+0.3 -1.3 89 -3 -3 1007.2 1003.6
00 20.06 ЮЗ 1 20 км 9/4 600 м
[Sc Ac lent Ci fib]
+1.8 -0.8 83 0 0 1007.2 1003.6
03 20.06 Ю 1 50 км 8/0
[Ac trans Ci fib]
+9.1 +0.3 54 +9 +12 1006.5 1003.0 -1.6
06 20.06 СВ 1 20 км 10/3 600 м
[Sc Ac As Ci fib]
+12.9 +1.6 46 +13 +18 1005.3 1001.8
09 20.06 ЮЗ 2 20 км 10/4 600 м
[Sc Ac As Ci fib]
+14.8 +2.3 43 +15 +18 1004.2 1000.8
12 20.06 Ю 2 20 км 10/6 600 м
[Sc Ac As]
+16.1 +3.9 44 +16 +17 1003.5 1000.1
15 20.06 ЮЗ 2 20 км 10/8 600 м
[Sc Ac As]
+14.5 +5.4 54 +14 +14 1003.5 1000.1 +16.2
18 20.06 Ю 1 20 км 10/0
[Ac trans]
+11.8 +7.1 73 +12 +12 1003.7 1000.2
21 20.06 СЗ 2 20 км 10/8 600 м
[Cb cap Ac trans]
+10.0 +4.5 69 +9 +9 1005.1 1001.6
00 21.06 СЗ 3 20 км слаб. дождь 10/6 600 м
[Cb cap Ac As]
+8.5 +3.6 71 +6 +6 1006.5 1003.0
03 21.06 С 1 10 км слаб. дождь 10/3 600 м
[Sc As op]
+7.5 +3.1 74 +7 +8 1008.0 1004.5 +7.4 0.0
06 21.06 З 5 10 км {дождь} 9/9 600 м
[Cb cap]
+8.6 -1.2 50 +6 +6 1008.5 1004.9
09 21.06 СЗ 4 10 км 9/8 600 м
[Cb cap Ac trans]
+9.6 -4.3 37 +7 +9 1009.7 1006.2
12 21.06 СЗ 3 20 км 8/8 600 м
[Cb cap]
+11.9 -2.5 37 +11 +12 1010.9 1007.4
15 21.06 З 5 10 км 9/4 600 м
[Sc diur, vesp Ac lent Ci fib]
+10.2 -0.5 47 +8 +8 1011.5 1008.0 +13.2 0.0
18 21.06 З 3 20 км 9/4 600 м
[Sc diur, vesp Ac lent]
+8.8 +0.2 55 +7 +7 1012.3 1008.7
21 21.06 ЮЗ 1 50 км 8/0
[Ac lent Ci fib]
+6.6 +0.5 65 +6 +6 1012.8 1009.2
00 22.06 ЮЗ 3 50 км 4/0
[Ac lent]
+6.1 +1.0 70 +3 +3 1013.0 1009.4
03 22.06 ЮЗ 3 50 км 6/3 600 м
[Sc Ac lent Ci fib]
+12.7 +2.4 49 +12 +14 1012.6 1009.2 +2.5
06 22.06 ЮЗ 4 20 км 8/0
[Ac lent Ci fib]
+16.0 +2.3 40 +15 +21 1011.2 1007.8
09 22.06 ЮЗ 2 20 км 8/3 600 м
[Cu hum Ci sp]
+19.8 +1.0 28 +21 +28 комфорт 1009.4 1006.1
12 22.06 ЮЗ 3 20 км 6/1 600 м
[Cu hum Ci sp]
+20.1 +1.1 28 +21 +25 комфорт 1008.5 1005.1
15 22.06 Ю 2 20 км 1/0
[Ac lent]
+19.7 +3.2 33 +21 +22 комфорт 1007.5 1004.1 +21.0
18 22.06 Ю 1 20 км 3/0
[Ac lent]
+13.3 +7.0 66 +14 +14 1007.3 1003.9
21 22.06 ЮВ 1 20 км ясно +8.9 +8.0 94 +8 +8 1006.7 1003.2
00 23.06 ЮВ 1 50 км 4/0
[Ac trans]
+10.3 +8.8 90 +10 +10 1006.5 1003.0
03 23.06 В 1 10 км 10/10 600 м
[Cb cap]
+12.4 +9.5 82 +12 +12 1005.8 1002.3 +7.5
06 23.06 СВ 2 20 км 10/10 600 м
[Cb cap]
+13.1 +9.4 78 +12 +12 1004.8 1001.3
09 23.06 В 2 20 км 9/4 600 м
[Cu hum Ac lent Ci sp]
+15.4 +10.0 70 +15 +20 1003.7 1000.2
12 23.06 В 3 20 км 8/4 600 м
[Cb cap Ci sp]
+18.6 +11.5 63 +19 +22 1001.7 998.3
15 23.06 ЮВ 1 20 км {ливн. осадки} 8/6 600 м
[Cb cap Ci sp]
+16.2 +15.2 94 +17 +18 1001.8 998.4 +19.0 2
18 23.06 ЮЗ 3 20 км местами туман поземный {ливн. осадки} 8/4 600 м
[Cb cap Ci sp]
+14.1 +14.0 99 +13 +13 1002.2 998.8
21 23.06 ЮЗ 3
{10}
20 км {ливн. осадки} 3/3 600 м
[Cb cap]
+11.6 +9.4 86 +10 +10 1002.3 998.9
00 24.06 Ю 2 20 км {ливн. осадки} 3/1 600 м
[Cb cap Ac lent]
+12.3 +8.6 78 +11 +12 1002.1 998.6
03 24.06 З 5 20 км {ливн. осадки} 8/3 600 м
[Cb cap Ac lent Ci sp]
+12.4 +6.1 65 +10 +11 1003.2 999.7 +10.9 0.3
06 24.06 З 6
{13}
20 км {ливн. осадки} 8/5 600 м
[Cb cap Ac lent Ci sp]
+14.2 +4.0 50 +12 +14 1005.3 1001.9
09 24.06 З 6
{15}
20 км 9/8 600 м
[Cb cap Ac lent]
+12.7 +3.9 55 +10 +11 1008.1 1004.7
12 24.06 З 6-12
{13}
20 км 4/0
[Ac lent]
+12.6 +2.9 52 +10 +12 1010.0 1006.5
15 24.06 З 6
{12}
20 км 4/0
[Ac lent]
+11.4 +2.2 53 +9 +9 1012.0 1008.5 +15.0
18 24.06 З 3
{10}
20 км 6/0
[Ac lent]
+8.6 +2.6 66 +6 +6 1013.4 1009.9
21 24.06 СВ 1 20 км 8/0
[Ac trans]
+6.0 +3.6 85 +5 +5 1014.7 1011.1
00 25.06 ЮЗ 1 20 км 8/0
[Ac trans Ci sp]
+5.2 +4.4 95 +4 +4 1015.4 1011.8
03 25.06 З 4 20 км 8/3 600 м
[Cb cap Ac trans Ci sp]
+11.6 +3.8 59 +10 +11 1015.5 1012.0 +3.5
06 25.06 З 5 20 км 9/6 600 м
[Sc Ac trans Ci fib]
+13.2 +2.2 47 +11 +13 1015.7 1012.2
09 25.06 З 5 20 км 9/6 600 м
[Sc Ac lent Ci fib]
+12.8 +2.4 49 +11 +13 1016.7 1013.2
12 25.06 З 2 50 км 6/3 600 м
[Cu hum Ac lent Ci fib]
+15.1 +2.1 41 +15 +19 1016.9 1013.4
15 25.06 З 3 50 км 6/0
[Ac lent Ci fib]
+12.8 +1.6 46 +12 +12 1017.7 1014.2 +15.7
18 25.06 З 2 50 км 6/0
[Ac lent Ci sp]
+8.2 +2.0 65 +7 +7 1018.0 1014.5
21 25.06 СЗ 2 50 км 8/0
[Ac lent Ci fib]
+6.9 +2.6 74 +5 +5 1018.7 1015.1
00 26.06 СЗ 1 50 км 4/0
[Ac lent Ci fib]
+4.2 +2.5 89 +3 +3 1019.2 1015.6
03 26.06 СЗ 2 20 км 8/0
[Ac lent Ci fib]
+9.2 +3.0 65 +8 +10 1019.1 1015.6 +3.5

 

Местоположение метеостанции Саранпауль (Ханты-Мансийский АО, Россия): широта 64.28 долгота 60.88 высота над уровнем моря 29 м.

В архиве по умолчанию представлена погода в Саранпауле за последнюю неделю. Архивные данные за месяц целиком и за предыдущие месяцы, начиная с января 2011 года, Вы можете получить, выбрав интересующий диапазон дат из раскрывающегося списка и нажав кнопку "Ввод!".


*Определитесь, кто Вы:
робот инопланетянин человек

Внимание! Время в таблицах - всемирное. Для получения местного времени необходимо прибавить поправку, которая равна 5 ч.

Смотрите также архив погоды в соседних городах и на ближайших метеорологических станциях:

Погода в Сосьве (Ханты-Мансийский АО, Россия) (92 км)
Погода в Приполярном (Ханты-Мансийский АО, Россия) (131 км)
Погода в Усть-Щугоре (Коми, Россия) (157 км)
Погода в Вуктыле (Коми, Россия) (180 км)
Погода в Печоре (Коми, Россия) (202 км)
Погода в Березово (Ханты-Мансийский АО, Россия) (206 км)
Погода в Няксимволе (Ханты-Мансийский АО, Россия) (206 км)
Погода в Игриме (Ханты-Мансийский АО, Россия) (213 км)
Погода в Мужах (Ямало-Ненецкий АО, Россия) (219 км)
Погода в Петруни (Коми, Россия) (239 км)

Пояснения к столбцам:

Ветер - указаны скорость ветра в м/с - средняя за 10 мин, порывы в срок и между сроками (в фигурных скобках) и направление, откуда дует ветер: С - северный, СВ - северо-восточный, В - восточный, ЮВ - юго-восточный, Ю - южный, ЮЗ - юго-западный, З - западный, СЗ - северо-западный.
Видимость - горизонтальная дальность видимости в метрах или километрах. При видимости от 1 до 10 км при отсутствии осадков обычно наблюдается дымка, при ухудшении видимости до 1 км и менее - туман. В сухую погоду видимость может ухудшаться дымом, пылью или мглою.
Явления - указаны атмосферные явления, наблюдавшиеся в срок или в последний час перед сроком; фигурными скобками обозначены явления, наблюдавшиеся между сроками (за 1-3 часа до срока); квадратными скобками обозначены град или гололедные отложения с указанием их диаметра в мм.
Облачность - указаны через наклонную черту общая и нижняя облачность в баллах и высота нижней границы облаков в метрах; квадратными скобками обозначены формы облаков: Ci - перистые, Cs - перисто-слоистые, Cc - перисто-кучевые, Ac - высококучевые, As - высокослоистые, Sc - слоисто-кучевые, Ns - слоисто-дождевые, Cu - кучевые, Cb - кучево-дождевые. Подробнее классификацию облаков см. в Атласе облаков (PDF).
T - Температура воздуха - температура, измеренная на высоте 2 м над землей.
Td - Температура точки росы - температура, при понижении до которой содержащийся в воздухе водяной пар достигнет насыщения.
f - Относительная влажность воздуха - влажноcть воздуха, измеренная на высоте 2 м над землей.
Te - Эффективная температура - температура, которую ощущает одетый по сезону человек в тени. Характеристика душности погоды. При расчете учитывается влияние влажности воздуха и скорости ветра на теплоощущения человека.
Tes - Эффективная температура на солнце - температура, которую ощущает человек, с поправкой на солнечный нагрев. Характеристика знойности погоды. Зависит от высоты солнца над горизонтом, облачности и скорости ветра. Ночью, в пасмурную погоду, а также при ветре 12 м/с и более поправка равна нулю.
P - Атмосферное давление - приведенное к уровню моря атмосферное давление.
Po - Атмосферное давление - измеренное на уровне метеостанции атмосферное давление.
Tmin - Минимальная температура - минимум температуры воздуха на высоте 2 м над землей.
Tmax - Максимальная температура - максимум температуры воздуха на высоте 2 м над землей.
R - Количество осадков - Количество выпавших осадков за период времени, мм. При наведении курсора мыши на число - период времени, за который выпало указанное количество осадков.
R24 - Количество осадков - Количество выпавших осадков за 24 часа, мм.
S - Снежный покров - Высота снежного покрова, см. При наведении курсора мыши на число - состояние снежного покрова и степень покрытия местности в баллах.